Location: El Gallo
(32.4380°N, 116.9347°W)
Time: 20:40:09
(UTC+00:00)

USA 238 DEB - Pass Details

Date: 01 October 2022
Orbit: 955 x 1257 km, 63.4° (Epoch: 25 November)

Event Time Altitude Azimuth Distance (km) Brightness Sun altitude
Rises 13:14:25 0° 233° (SW) 3,627 6.0 -6.6°
Reaches altitude 10° 13:17:07 10° 241° (WSW) 2,699 5.3 -6.1°
Maximum altitude 13:22:54 37° 308° (NW) 1,493 4.1 -4.8°
Drops below altitude 10° 13:29:00 10° 14° (NNE) 2,845 6.1 -3.5°
Sets 13:31:57 0° 23° (NNE) 3,848 6.9 -2.9°
